Location: Crocus Hill
(18.2167°N, 63.0667°W)
Time: 05:02:57
(UTC+00:00)

Cosmos 1452 Rocket - Pass Details

Date: 26 January 2020
Orbit: 768 x 774 km, 74.1° (Epoch: 26 February)

Event Time Altitude Azimuth Distance (km) Brightness Sun altitude
Rises 00:02:49 0° 192° (SSW) 3,236 7.0 -28.3°
Reaches altitude 10° 00:05:11 10° 191° (SSW) 2,310 6.2 -28.9°
Enters shadow 00:08:29 40° 189° (S) 1,128 4.4 -29.7°
